Location: Pradons
(44.4746°N, 4.3578°E)
Time: 16:00:41
(UTC+00:00)

Cosmos 1833 Rocket - Pass Details

Date: 09 April 2020
Orbit: 834 x 838 km, 71.0° (Epoch: 27 May)

Event Time Altitude Azimuth Distance (km) Brightness Sun altitude
Exits shadow 20:39:28 26° 65° (ENE) 1,589 3.9 -23.1°
Drops below altitude 10° 20:42:25 10° 42° (NE) 2,458 5.1 -23.5°
Sets 20:45:02 0° 33° (NNE) 3,396 5.9 -23.9°
